Skagway, AK

6:45 AM AKDT on September 29, 2016 (GMT -0800)
Skagway

Weather History for PAGY - March, 2012

Change the Weather History Date:

Tuesday, March 27, 2012

  Actual Average Record
Temperature  
Mean Temperature 36 °F -  
Max Temperature 48 °F 38 °F 51 °F (2011)
Min Temperature 25 °F 27 °F 10 °F (1967)
Degree Days  
Heating Degree Days 30    
Moisture  
Dew Point 20 °F    
Average Humidity 56    
Maximum Humidity 85    
Minimum Humidity 29    
Precipitation  
Precipitation 0.00 in - - ()
Sea Level Pressure  
Sea Level Pressure 29.60 in    
Wind  
Wind Speed 6 mph (NE)    
Max Wind Speed 23 mph    
Max Gust Speed 32 mph    
Visibility 10 miles    
Events      
Averages and records for this station are not official NWS values.
T = Trace of Precipitation, MM = Missing Value Source: NWS Daily Summary

Daily Weather History Graph

Daily Weather History Graph

Search for Another Location

Airport or City:

Trip Planner

Search our weather history database for the weather conditions in past years. The results will help you decide how hot, cold, wet, or windy it might be!

Date:

Astronomy

Mar. 27, 2012 Rise Set
Actual Time 6:40 AM AKDT 7:34 PM AKDT
Civil Twilight 5:58 AM AKDT 8:15 PM AKDT
Nautical Twilight 5:07 AM AKDT 9:07 PM AKDT
Astronomical Twilight 4:10 AM AKDT 10:04 PM AKDT
Moon 7:59 AM AKDT (3/27) 1:04 AM AKDT (3/27)
Length of Visible Light 14h 17m
Length of Day
12h 54m
Waxing Crescent, 23% of the Moon is Illuminated
Mar 27
Waxing Crescent
Mar 30
First Quarter
Apr 6
Full
Apr 13
Last Quarter
Apr 20
New

Hourly Weather History & Observations

Time (AKDT) Temp. Windchill Dew Point Humidity Pressure Visibility Wind Dir Wind Speed Gust Speed Precip Events Conditions
12:53 AM 28.0 °F 24.2 °F 23.0 °F 81% 29.72 in 10.0 mi NE 3.5 mph - N/A   Clear
1:53 AM 27.0 °F 23.0 °F 21.9 °F 81% 29.72 in 10.0 mi NNE 3.5 mph - N/A   Clear
2:53 AM 26.1 °F 20.5 °F 21.9 °F 84% 29.71 in 10.0 mi NE 4.6 mph - N/A   Clear
3:53 AM 26.1 °F - 21.0 °F 81% 29.69 in 10.0 mi Calm Calm - N/A   Clear
4:53 AM 26.1 °F - 21.0 °F 81% 29.69 in 10.0 mi Calm Calm - N/A   Clear
5:53 AM 25.0 °F 20.7 °F 19.9 °F 81% 29.68 in 10.0 mi NE 3.5 mph - N/A   Clear
6:53 AM 25.0 °F - 21.0 °F 85% 29.67 in 6.0 mi Calm Calm - N/A   Clear
7:53 AM 27.0 °F - 21.0 °F 78% 29.66 in 10.0 mi Calm Calm - N/A   Clear
8:53 AM 34.0 °F 26.6 °F 16.0 °F 48% 29.65 in 10.0 mi NE 9.2 mph - N/A   Clear
9:53 AM 37.9 °F 29.6 °F 16.0 °F 41% 29.62 in 10.0 mi NE 13.8 mph 25.3 mph N/A   Clear
10:53 AM 39.0 °F 28.5 °F 14.0 °F 36% 29.61 in 10.0 mi NE 23.0 mph 28.8 mph N/A   Scattered Clouds
11:53 AM 41.0 °F 31.9 °F 14.0 °F 33% 29.60 in 10.0 mi ENE 19.6 mph 32.2 mph N/A   Partly Cloudy
12:53 PM 44.1 °F 36.5 °F 15.1 °F 31% 29.59 in 10.0 mi ENE 17.3 mph 26.5 mph N/A   Mostly Cloudy
1:53 PM 45.0 °F 37.6 °F 15.1 °F 30% 29.57 in 10.0 mi NE 17.3 mph 27.6 mph N/A   Clear
2:53 PM 46.9 °F - 17.1 °F 30% 29.55 in 10.0 mi NE 18.4 mph - N/A   Clear
3:53 PM 46.9 °F - 17.1 °F 30% 29.54 in 10.0 mi NE 13.8 mph - N/A   Overcast
4:53 PM 46.9 °F - 16.0 °F 29% 29.54 in 10.0 mi NE 10.4 mph - N/A   Overcast
5:53 PM 46.0 °F 44.8 °F 18.0 °F 33% 29.53 in 10.0 mi Variable 3.5 mph - N/A   Overcast
6:53 PM 45.0 °F 43.5 °F 17.1 °F 33% 29.51 in 10.0 mi Variable 3.5 mph - N/A   Overcast
7:53 PM 41.0 °F 38.0 °F 27.0 °F 57% 29.51 in 10.0 mi NNE 4.6 mph - N/A   Overcast
8:53 PM 39.0 °F 36.8 °F 27.0 °F 62% 29.52 in 10.0 mi NE 3.5 mph - N/A   Overcast
9:53 PM 37.9 °F - 27.0 °F 65% 29.51 in 10.0 mi Calm Calm - N/A   Overcast
10:53 PM 37.0 °F 34.5 °F 27.0 °F 67% 29.50 in 10.0 mi NE 3.5 mph - N/A   Overcast
11:53 PM 36.0 °F 32.1 °F 27.0 °F 70% 29.49 in 10.0 mi ENE 4.6 mph - N/A   Overcast